Weather in Kulayevo

Russia / Republic of Tatarstan     55°42′43″N   49°34′14″E
temp.,
°C
wind,
m/s
gust,
m/s
humid.,
%
clouds,
%
prec.,
mm/h
press.,
hPa
HPBL,
m
29 july, thu
thu2900:00+13s22635 0.0 101413
03:00+12ssw33625 0.0 101324
06:00+15ssw376562 0.0 1013184
09:00+21sw4650100 0.0 1011684
12:00+19ssw4861100 0.0 1011513
15:00+17s588472 0.0 1010494
18:00+17s4889100 0.0 1007461
21:00+15sse499715 0.0 1006270
30 july, fri
fri3000:00+16s3897100 0.0 1004213
03:00+16sw249988 0.0 1003164
06:00+17w4996100 0.0 1004422
09:00+22wnw5769100 0.0 1005969
12:00+25w5855100 0.0 10061613
15:00+24sw3767100 0.3 1005220
18:00+24sw41066100 0.0 1005344
21:00+21sw2269100 0.0 100515
31 july, sat
sat3100:00+18nnw1397100 3.6 100688
03:00+17s229761 8.1 100558
06:00+18ssw369550 0.1 1005259
09:00+23sw567557 0.1 1005853
12:00+26wsw685934 0.1 10051520
15:00+26w5854100 0.3 10051664
18:00+24wsw49620 0.0 1005323
21:00+21wsw49582 0.0 1007249
1 august, sun
sun100:00+17wsw496637 0.0 1008148
03:00+17wsw35690 0.0 100871
06:00+18w39693 0.0 1010254
09:00+24w5851100 0.0 1010881
12:00+26w6744100 0.0 10111772
15:00+27w5743100 0.0 10101871
18:00+24w2458100 0.0 101177
21:00+20ssw336367 0.0 101121
2 august, mon
mon200:00+19sw226721 0.0 101119
03:00+18sw376367 0.0 1011107
06:00+20ssw51062100 0.0 1011215
09:00+20wnw41079100 0.7 1012414
12:00+21sw247694 0.4 1012180
15:00+28w354838 0.4 10101119
18:00+27wnw11594 0.0 101012
21:00+22se22695 0.0 101016